Location: Street
(51.1247°N, 2.7429°W)
Time: 03:03:50
(UTC+00:00)

deb Explorer IX - Pass Details

Date: 11 December 2020
Orbit: 536 x 1104 km, 38.8° (Epoch: 20 January)

Event Time Altitude Azimuth Distance (km) Brightness Sun altitude
Rises 11:45:05 0° 221° (SW) 3,881 ? 15.7°
Reaches altitude 10° 11:48:27 10° 207° (SSW) 2,951 ? 15.7°
Maximum altitude 11:53:49 23° 160° (SSE) 2,166 ? 15.8°
Drops below altitude 10° 11:59:06 10° 112° (ESE) 2,896 ? 15.8°
Sets 12:02:22 0° 99° (E) 3,792 ? 15.8°
